Location: Bad Rothenbrunn
(47.2167°N, 11.2167°E)
Time: 17:08:15
(UTC+00:00)

Cosmos 1844 - Pass Details

Date: 03 March 2021
Orbit: 823 x 868 km, 70.9° (Epoch: 22 April)

Event Time Altitude Azimuth Distance (km) Brightness Sun altitude
Rises 18:33:20 0° 332° (NNW) 3,460 7.4 -16.0°
Reaches altitude 10° 18:35:49 10° 334° (NNW) 2,515 6.6 -16.4°
Maximum altitude 18:41:38 84° 63° (ENE) 870 3.7 -17.4°
Enters shadow 18:46:26 15° 151° (SSE) 2,136 5.4 -18.2°
